,,PA_Meas_PMT16A,,PR_Meas_QMR101_102,,RH_Meas_QMH101,,SR_Meas_QMS101,,TA_Meas_QMH101,,GenWind,,GenWind,
time,status,PA,status,PR,status,RH,status,SR,status,TA,status,DirAvg,status,SpdAvg,
2012-08-18, 00:00:04,VALID,917.672,VALID,0,VALID,97.069,VALID,0,VALID,19.5317,VALID,8,VALID,0,
2012-08-18, 00:01:04,VALID,917.649,VALID,0,VALID,97.0613,VALID,0,VALID,19.5108,VALID,8,VALID,0,
2012-08-18, 00:02:04,VALID,917.69,VALID,0,VALID,97.0613,VALID,0,VALID,19.4913,VALID,8,VALID,0,
2012-08-18, 00:03:04,VALID,917.691,VALID,0,VALID,97.0385,VALID,0,VALID,19.4898,VALID,8,VALID,0,
2012-08-18, 00:04:04,VALID,917.712,VALID,0,VALID,97.0537,VALID,0.107441,VALID,19.4703,VALID,8,VALID,0,
2012-08-18, 00:05:04,VALID,917.722,VALID,0,VALID,97.0156,VALID,0.107441,VALID,19.4703,VALID,8,VALID,0,
2012-08-18, 00:06:04,VALID,917.689,VALID,0,VALID,97.0385,VALID,0,VALID,19.4523,VALID,8,VALID,0,
2012-08-18, 00:07:04,VALID,917.682,VALID,0,VALID,97.0232,VALID,0,VALID,19.4313,VALID,8,VALID,0,
2012-08-18, 00:08:04,VALID,917.685,VALID,0,VALID,97.0385,VALID,0,VALID,19.4523,VALID,8,VALID,0,
2012-08-18, 00:09:04,VALID,917.682,VALID,0,VALID,97.0613,VALID,0,VALID,19.4703,VALID,8,VALID,0,
2012-08-18, 00:10:04,VALID,917.698,VALID,0,VALID,97.0537,VALID,0,VALID,19.5093,VALID,8,VALID,0,
2012-08-18, 00:11:04,VALID,917.7,VALID,0,VALID,97.0385,VALID,0.107441,VALID,19.4703,VALID,8,VALID,0,
2012-08-18, 00:12:04,VALID,917.733,VALID,0,VALID,97.0537,VALID,0,VALID,19.4703,VALID,8,VALID,0,
2012-08-18, 00:13:04,VALID,917.784,VALID,0,VALID,97.0385,VALID,0.107441,VALID,19.4898,VALID,8,VALID,0,
2012-08-18, 00:14:04,VALID,917.772,VALID,0,VALID,97.0461,VALID,0,VALID,19.4913,VALID,8,VALID,0,
2012-08-18, 00:15:04,VALID,917.776,VALID,0,VALID,97.0385,VALID,0,VALID,19.4703,VALID,8,VALID,0,
2012-08-18, 00:16:04,VALID,917.796,VALID,0,VALID,97.0385,VALID,0,VALID,19.4898,VALID,8,VALID,0,
2012-08-18, 00:17:04,VALID,917.805,VALID,0,VALID,97.0385,VALID,0,VALID,19.5108,VALID,8,VALID,0,
2012-08-18, 00:18:04,VALID,917.843,VALID,0,VALID,97.008,VALID,0,VALID,19.4913,VALID,8,VALID,0,
2012-08-18, 00:19:04,VALID,917.838,VALID,0,VALID,97.0003,VALID,0,VALID,19.4718,VALID,9,VALID,0,
2012-08-18, 00:20:04,VALID,917.85,VALID,0,VALID,96.9927,VALID,0,VALID,19.4718,VALID,8,VALID,0,
2012-08-18, 00:21:04,VALID,917.87,VALID,0,VALID,97.0003,VALID,0,VALID,19.5122,VALID,8,VALID,0,
2012-08-18, 00:22:04,VALID,917.837,VALID,0,VALID,96.9775,VALID,0,VALID,19.5122,VALID,23,VALID,0,
2012-08-18, 00:23:04,VALID,917.823,VALID,0,VALID,96.9698,VALID,0,VALID,19.5108,VALID,33,VALID,0,
2012-08-18, 00:24:04,VALID,917.847,VALID,0,VALID,96.9775,VALID,0,VALID,19.5512,VALID,33,VALID,0,
2012-08-18, 00:25:04,VALID,917.86,VALID,0,VALID,96.947,VALID,0,VALID,19.5303,VALID,33,VALID,0,
2012-08-18, 00:26:04,VALID,917.856,VALID,0,VALID,96.9241,VALID,0,VALID,19.5108,VALID,342,VALID,0,
2012-08-18, 00:27:04,VALID,917.844,VALID,0,VALID,96.8403,VALID,0,VALID,19.4927,VALID,342,VALID,0,
2012-08-18, 00:28:04,VALID,917.87,VALID,0,VALID,96.8479,VALID,0,VALID,19.4913,VALID,342,VALID,0,
2012-08-18, 00:29:04,VALID,917.873,VALID,0,VALID,96.8936,VALID,0,VALID,19.4913,VALID,342,VALID,0,
2012-08-18, 00:30:04,VALID,917.873,VALID,0,VALID,96.8936,VALID,0,VALID,19.4913,VALID,342,VALID,0,
2012-08-18, 00:31:04,VALID,917.865,VALID,0,VALID,96.8555,VALID,0,VALID,19.4927,VALID,342,VALID,0,
2012-08-18, 00:32:04,VALID,917.866,VALID,0,VALID,96.8555,VALID,0,VALID,19.5122,VALID,342,VALID,0,
2012-08-18, 00:33:04,VALID,917.864,VALID,0,VALID,96.8631,VALID,0.107441,VALID,19.5303,VALID,342,VALID,0,
2012-08-18, 00:34:04,VALID,917.898,VALID,0,VALID,96.8479,VALID,0,VALID,19.5498,VALID,342,VALID,0,
2012-08-18, 00:35:04,VALID,917.899,VALID,0,VALID,96.8326,VALID,0,VALID,19.5483,VALID,342,VALID,0,
2012-08-18, 00:36:04,VALID,917.915,VALID,0,VALID,96.8098,VALID,0,VALID,19.5888,VALID,342,VALID,0,
2012-08-18, 00:37:04,VALID,917.912,VALID,0,VALID,96.7488,VALID,0.107441,VALID,19.5678,VALID,342,VALID,0,
2012-08-18, 00:38:04,VALID,917.932,VALID,0,VALID,96.7564,VALID,0,VALID,19.5693,VALID,342,VALID,0,
2012-08-18, 00:39:04,VALID,917.912,VALID,0,VALID,96.6954,VALID,0,VALID,19.5693,VALID,342,VALID,0,
2012-08-18, 00:40:04,VALID,917.884,VALID,0,VALID,96.6725,VALID,0,VALID,19.5288,VALID,342,VALID,0,
2012-08-18, 00:41:04,VALID,917.904,VALID,0,VALID,96.6268,VALID,0,VALID,19.5093,VALID,342,VALID,0,
2012-08-18, 00:42:04,VALID,917.909,VALID,0,VALID,96.6268,VALID,0,VALID,19.5288,VALID,342,VALID,0,
2012-08-18, 00:43:04,VALID,917.91,VALID,0,VALID,96.6344,VALID,0.107441,VALID,19.5288,VALID,342,VALID,0,
2012-08-18, 00:44:04,VALID,917.958,VALID,0,VALID,96.6115,VALID,0,VALID,19.5693,VALID,342,VALID,0,
2012-08-18, 00:45:04,VALID,917.947,VALID,0,VALID,96.5429,VALID,0,VALID,19.5498,VALID,342,VALID,0,
2012-08-18, 00:46:04,VALID,917.955,VALID,0,VALID,96.5734,VALID,0.107441,VALID,19.5288,VALID,342,VALID,0,
2012-08-18, 00:47:04,VALID,917.949,VALID,0,VALID,96.5277,VALID,0,VALID,19.5288,VALID,342,VALID,0,
2012-08-18, 00:48:04,VALID,917.937,VALID,0,VALID,96.5277,VALID,0,VALID,19.5288,VALID,342,VALID,0,
2012-08-18, 00:49:04,VALID,917.942,VALID,0,VALID,96.5124,VALID,0,VALID,19.5093,VALID,342,VALID,0,
2012-08-18, 00:50:04,VALID,917.926,VALID,0,VALID,96.4515,VALID,0,VALID,19.5093,VALID,342,VALID,0,
2012-08-18, 00:51:04,VALID,917.913,VALID,0,VALID,96.4133,VALID,0,VALID,19.5093,VALID,342,VALID,0,
2012-08-18, 00:52:04,VALID,917.935,VALID,0,VALID,96.4286,VALID,0,VALID,19.4898,VALID,342,VALID,0,
2012-08-18, 00:53:04,VALID,917.922,VALID,0,VALID,96.4133,VALID,0,VALID,19.4898,VALID,342,VALID,0,
2012-08-18, 00:54:04,VALID,917.903,VALID,0,VALID,96.3829,VALID,0,VALID,19.4898,VALID,342,VALID,0,
2012-08-18, 00:55:04,VALID,917.877,VALID,0,VALID,96.36,VALID,0.107441,VALID,19.4898,VALID,342,VALID,0,
2012-08-18, 00:56:04,VALID,917.878,VALID,0,VALID,96.4133,VALID,0,VALID,19.5108,VALID,342,VALID,0,
2012-08-18, 00:57:04,VALID,917.882,VALID,0,VALID,96.3829,VALID,0.107441,VALID,19.5303,VALID,342,VALID,0,
2012-08-18, 00:58:04,VALID,917.863,VALID,0,VALID,96.421,VALID,0.107441,VALID,19.5093,VALID,342,VALID,0,
2012-08-18, 00:59:04,VALID,917.856,VALID,0,VALID,96.4438,VALID,0.107441,VALID,19.5288,VALID,342,VALID,0,
2012-08-18, 01:00:04,VALID,917.862,VALID,0,VALID,96.4438,VALID,0,VALID,19.5288,VALID,342,VALID,0,
2012-08-18, 01:01:04,VALID,917.84,VALID,0,VALID,96.421,VALID,0.107441,VALID,19.5678,VALID,342,VALID,0,
2012-08-18, 01:02:04,VALID,917.83,VALID,0,VALID,96.3905,VALID,0,VALID,19.5678,VALID,342,VALID,0,
2012-08-18, 01:03:04,VALID,917.803,VALID,0,VALID,96.3676,VALID,0,VALID,19.5693,VALID,342,VALID,0,
2012-08-18, 01:04:04,VALID,917.766,VALID,0,VALID,96.3371,VALID,0,VALID,19.6098,VALID,342,VALID,0,
2012-08-18, 01:05:04,VALID,917.77,VALID,0,VALID,96.3142,VALID,0,VALID,19.6098,VALID,342,VALID,0,
2012-08-18, 01:06:04,VALID,917.766,VALID,0,VALID,96.2609,VALID,0,VALID,19.6083,VALID,342,VALID,0,
2012-08-18, 01:07:04,VALID,917.739,VALID,0,VALID,96.2761,VALID,0,VALID,19.6083,VALID,342,VALID,0,
2012-08-18, 01:08:04,VALID,917.705,VALID,0,VALID,96.2304,VALID,0,VALID,19.6083,VALID,342,VALID,0,
2012-08-18, 01:09:04,VALID,917.71,VALID,0,VALID,96.1923,VALID,0,VALID,19.6098,VALID,342,VALID,0,
2012-08-18, 01:10:04,VALID,917.685,VALID,0,VALID,96.1618,VALID,0,VALID,19.6083,VALID,342,VALID,0,
2012-08-18, 01:11:04,VALID,917.654,VALID,0,VALID,96.116,VALID,0,VALID,19.5888,VALID,342,VALID,0,
2012-08-18, 01:12:04,VALID,917.618,VALID,0,VALID,96.0779,VALID,0,VALID,19.5693,VALID,342,VALID,0,
2012-08-18, 01:13:04,VALID,917.602,VALID,0,VALID,96.0855,VALID,0,VALID,19.5693,VALID,342,VALID,0,
2012-08-18, 01:14:04,VALID,917.595,VALID,0,VALID,96.1008,VALID,0,VALID,19.5498,VALID,342,VALID,0,
2012-08-18, 01:15:04,VALID,917.604,VALID,0,VALID,96.0703,VALID,0,VALID,19.5903,VALID,342,VALID,0,
2012-08-18, 01:16:04,VALID,917.599,VALID,0,VALID,96.0474,VALID,0,VALID,19.5498,VALID,342,VALID,0,
2012-08-18, 01:17:04,VALID,917.572,VALID,0,VALID,96.0398,VALID,0,VALID,19.5708,VALID,342,VALID,0,
2012-08-18, 01:18:04,VALID,917.583,VALID,0,VALID,96.0855,VALID,0,VALID,19.5693,VALID,342,VALID,0,
2012-08-18, 01:19:04,VALID,917.571,VALID,0,VALID,96.055,VALID,0,VALID,19.5693,VALID,342,VALID,0,
2012-08-18, 01:20:04,VALID,917.556,VALID,0,VALID,96.0398,VALID,0,VALID,19.5288,VALID,342,VALID,0,
2012-08-18, 01:21:04,VALID,917.517,VALID,0,VALID,96.0627,VALID,0.107441,VALID,19.5693,VALID,342,VALID,0,
2012-08-18, 01:22:04,VALID,917.491,VALID,0,VALID,96.0398,VALID,0,VALID,19.5498,VALID,342,VALID,0,
2012-08-18, 01:23:04,VALID,917.47,VALID,0,VALID,96.0322,VALID,0,VALID,19.5093,VALID,342,VALID,0,
2012-08-18, 01:24:04,VALID,917.449,VALID,0,VALID,96.0245,VALID,0,VALID,19.5093,VALID,342,VALID,0,
2012-08-18, 01:25:04,VALID,917.445,VALID,0,VALID,95.9941,VALID,0,VALID,19.5108,VALID,342,VALID,0,
2012-08-18, 01:26:04,VALID,917.436,VALID,0,VALID,96.0169,VALID,0,VALID,19.4913,VALID,342,VALID,0,
2012-08-18, 01:27:04,VALID,917.453,VALID,0,VALID,96.0474,VALID,0,VALID,19.4718,VALID,342,VALID,0,
2012-08-18, 01:28:04,VALID,917.424,VALID,0,VALID,96.0703,VALID,0,VALID,19.4313,VALID,342,VALID,0,
2012-08-18, 01:29:04,VALID,917.429,VALID,0,VALID,96.1084,VALID,0,VALID,19.4313,VALID,342,VALID,0,
2012-08-18, 01:30:04,VALID,917.401,VALID,0,VALID,96.0932,VALID,0,VALID,19.4313,VALID,342,VALID,0,
2012-08-18, 01:31:04,VALID,917.375,VALID,0,VALID,96.116,VALID,0,VALID,19.4327,VALID,342,VALID,0,
2012-08-18, 01:32:04,VALID,917.413,VALID,0,VALID,96.1389,VALID,0,VALID,19.3923,VALID,342,VALID,0,
2012-08-18, 01:33:04,VALID,917.368,VALID,0,VALID,96.1618,VALID,0,VALID,19.3937,VALID,342,VALID,0,
2012-08-18, 01:34:04,VALID,917.357,VALID,0,VALID,96.1923,VALID,0,VALID,19.3547,VALID,342,VALID,0,
2012-08-18, 01:35:04,VALID,917.387,VALID,0,VALID,96.2304,VALID,0,VALID,19.3352,VALID,342,VALID,0,
2012-08-18, 01:36:04,VALID,917.371,VALID,0,VALID,96.2685,VALID,0,VALID,19.3547,VALID,342,VALID,0,
2012-08-18, 01:37:04,VALID,917.361,VALID,0,VALID,96.3142,VALID,0,VALID,19.3157,VALID,342,VALID,0,
2012-08-18, 01:38:04,VALID,917.334,VALID,0,VALID,96.3752,VALID,0,VALID,19.3367,VALID,342,VALID,0,
2012-08-18, 01:39:04,VALID,917.342,VALID,0,VALID,96.4057,VALID,0,VALID,19.2962,VALID,70,VALID,0,
2012-08-18, 01:40:04,VALID,917.326,VALID,0,VALID,96.4591,VALID,0,VALID,19.2767,VALID,70,VALID,0,
2012-08-18, 01:41:04,VALID,917.302,VALID,0,VALID,96.5277,VALID,0,VALID,19.3172,VALID,70,VALID,0,
2012-08-18, 01:42:04,VALID,917.336,VALID,0,VALID,96.5658,VALID,0,VALID,19.3172,VALID,70,VALID,0,
2012-08-18, 01:43:04,VALID,917.293,VALID,0,VALID,96.5582,VALID,0,VALID,19.2767,VALID,72,VALID,0,
2012-08-18, 01:44:04,VALID,917.266,VALID,0,VALID,96.5277,VALID,0,VALID,19.2587,VALID,74,VALID,0,
2012-08-18, 01:45:04,VALID,917.274,VALID,0,VALID,96.6344,VALID,0,VALID,19.2587,VALID,74,VALID,0,
2012-08-18, 01:46:04,VALID,917.273,VALID,0,VALID,96.6878,VALID,0,VALID,19.2377,VALID,107,VALID,0,
2012-08-18, 01:47:04,VALID,917.27,VALID,0,VALID,96.7259,VALID,0,VALID,19.2392,VALID,122,VALID,0,
2012-08-18, 01:48:04,VALID,917.25,VALID,0,VALID,96.7564,VALID,0,VALID,19.2182,VALID,99,VALID,0,
2012-08-18, 01:49:04,VALID,917.194,VALID,0,VALID,96.7564,VALID,0,VALID,19.1778,VALID,120,VALID,0,
2012-08-18, 01:50:04,VALID,917.167,VALID,0,VALID,96.7945,VALID,0,VALID,19.1792,VALID,120,VALID,0,
2012-08-18, 01:51:04,VALID,917.14,VALID,0,VALID,96.8174,VALID,0,VALID,19.1583,VALID,120,VALID,0,
2012-08-18, 01:52:04,VALID,917.101,VALID,0,VALID,96.886,VALID,0,VALID,19.1597,VALID,120,VALID,0,
2012-08-18, 01:53:04,VALID,917.105,VALID,0,VALID,96.9012,VALID,0,VALID,19.1583,VALID,102,VALID,0,
2012-08-18, 01:54:04,VALID,917.089,VALID,0,VALID,96.9165,VALID,0,VALID,19.1792,VALID,126,VALID,0,
2012-08-18, 01:55:04,VALID,917.067,VALID,0,VALID,96.9622,VALID,0,VALID,19.1792,VALID,78,VALID,0,
2012-08-18, 01:56:04,VALID,917.037,VALID,0,VALID,96.9851,VALID,0,VALID,19.1792,VALID,140,VALID,0,
2012-08-18, 01:57:04,VALID,917.03,VALID,0,VALID,96.9851,VALID,0,VALID,19.1792,VALID,136,VALID,0,
2012-08-18, 01:58:04,VALID,917.009,VALID,0,VALID,96.9698,VALID,0,VALID,19.1597,VALID,132,VALID,0,
2012-08-18, 01:59:04,VALID,917.008,VALID,0,VALID,96.9927,VALID,0,VALID,19.1583,VALID,132,VALID,0,
2012-08-18, 02:00:04,VALID,916.979,VALID,0,VALID,97.0156,VALID,0,VALID,19.1792,VALID,132,VALID,0,
2012-08-18, 02:01:04,VALID,916.973,VALID,0,VALID,97.0308,VALID,0,VALID,19.1597,VALID,131,VALID,0,
2012-08-18, 02:02:04,VALID,916.967,VALID,0,VALID,97.0385,VALID,0.107441,VALID,19.1402,VALID,114,VALID,0,
2012-08-18, 02:03:04,VALID,916.964,VALID,0,VALID,97.0461,VALID,0.107441,VALID,19.1193,VALID,114,VALID,0,
2012-08-18, 02:04:04,VALID,916.943,VALID,0,VALID,97.0613,VALID,0.107441,VALID,19.0998,VALID,149,VALID,0,
2012-08-18, 02:05:04,VALID,916.915,VALID,0,VALID,97.069,VALID,0,VALID,19.0998,VALID,156,VALID,0,
2012-08-18, 02:06:04,VALID,916.91,VALID,0,VALID,97.069,VALID,0.107441,VALID,19.1207,VALID,141,VALID,0,
2012-08-18, 02:07:04,VALID,916.9,VALID,0,VALID,97.0842,VALID,0.107441,VALID,19.0998,VALID,165,VALID,0,
2012-08-18, 02:08:04,VALID,916.908,VALID,0,VALID,97.0994,VALID,0.107441,VALID,19.0998,VALID,121,VALID,0,
2012-08-18, 02:09:04,VALID,916.912,VALID,0,VALID,97.0994,VALID,0.107441,VALID,19.1207,VALID,164,VALID,0,
2012-08-18, 02:10:04,VALID,916.879,VALID,0,VALID,97.1071,VALID,0.107441,VALID,19.0998,VALID,142,VALID,0,
2012-08-18, 02:11:04,VALID,916.879,VALID,0,VALID,97.1147,VALID,0.107441,VALID,19.1193,VALID,151,VALID,0,
2012-08-18, 02:12:04,VALID,916.877,VALID,0,VALID,97.1299,VALID,0.107441,VALID,19.1207,VALID,164,VALID,0,
2012-08-18, 02:13:04,VALID,916.864,VALID,0,VALID,97.1452,VALID,0,VALID,19.1207,VALID,166,VALID,0,
2012-08-18, 02:14:04,VALID,916.839,VALID,0,VALID,97.1604,VALID,0,VALID,19.0803,VALID,157,VALID,0,
2012-08-18, 02:15:04,VALID,916.833,VALID,0,VALID,97.1604,VALID,0,VALID,19.0817,VALID,127,VALID,0,
2012-08-18, 02:16:04,VALID,916.799,VALID,0,VALID,97.1604,VALID,0.107441,VALID,19.0608,VALID,169,VALID,0,
2012-08-18, 02:17:04,VALID,916.796,VALID,0,VALID,97.1833,VALID,0,VALID,19.0622,VALID,165,VALID,0,
2012-08-18, 02:18:04,VALID,916.78,VALID,0,VALID,97.1681,VALID,0,VALID,19.0427,VALID,145,VALID,0,
2012-08-18, 02:19:04,VALID,916.799,VALID,0,VALID,97.1909,VALID,0,VALID,19.0442,VALID,158,VALID,0,
2012-08-18, 02:20:04,VALID,916.792,VALID,0,VALID,97.1757,VALID,0,VALID,19.0442,VALID,148,VALID,0,
2012-08-18, 02:21:04,VALID,916.752,VALID,0,VALID,97.1681,VALID,0,VALID,19.0247,VALID,134,VALID,0,
2012-08-18, 02:22:04,VALID,916.762,VALID,0,VALID,97.1833,VALID,0,VALID,19.0247,VALID,149,VALID,0,
2012-08-18, 02:23:04,VALID,916.743,VALID,0,VALID,97.2138,VALID,0,VALID,19.0052,VALID,152,VALID,0,
2012-08-18, 02:24:04,VALID,916.715,VALID,0,VALID,97.2138,VALID,0,VALID,18.9438,VALID,144,VALID,0,
2012-08-18, 02:25:04,VALID,916.702,VALID,0,VALID,97.2214,VALID,0,VALID,18.9647,VALID,160,VALID,0,
2012-08-18, 02:26:04,VALID,916.723,VALID,0,VALID,97.2138,VALID,0,VALID,18.9857,VALID,127,VALID,0,
2012-08-18, 02:27:04,VALID,916.706,VALID,0,VALID,97.2138,VALID,0,VALID,18.9647,VALID,117,VALID,0,
2012-08-18, 02:28:04,VALID,916.672,VALID,0,VALID,97.229,VALID,0,VALID,18.9662,VALID,154,VALID,0,
2012-08-18, 02:29:04,VALID,916.683,VALID,0,VALID,97.2367,VALID,0,VALID,18.9452,VALID,163,VALID,0,
2012-08-18, 02:30:04,VALID,916.672,VALID,0,VALID,97.2519,VALID,0,VALID,18.9452,VALID,179,VALID,0,
2012-08-18, 02:31:04,VALID,916.692,VALID,0,VALID,97.229,VALID,0,VALID,18.9857,VALID,164,VALID,0,
2012-08-18, 02:32:04,VALID,916.719,VALID,0,VALID,97.2519,VALID,0,VALID,18.9452,VALID,160,VALID,0,
2012-08-18, 02:33:04,VALID,916.678,VALID,0,VALID,97.2672,VALID,0,VALID,18.9438,VALID,170,VALID,0,
2012-08-18, 02:34:04,VALID,916.677,VALID,0,VALID,97.2595,VALID,0.107441,VALID,18.9452,VALID,116,VALID,0,
2012-08-18, 02:35:04,VALID,916.678,VALID,0,VALID,97.29,VALID,0.107441,VALID,18.9647,VALID,150,VALID,0,
2012-08-18, 02:36:04,VALID,916.673,VALID,0,VALID,97.2824,VALID,0.107441,VALID,18.9243,VALID,147,VALID,0,
2012-08-18, 02:37:04,VALID,916.661,VALID,0,VALID,97.2595,VALID,0.107441,VALID,18.9048,VALID,146,VALID,0,
2012-08-18, 02:38:04,VALID,916.596,VALID,0,VALID,97.2824,VALID,0.107441,VALID,18.9048,VALID,171,VALID,0,
2012-08-18, 02:39:04,VALID,916.6,VALID,0,VALID,97.2977,VALID,0,VALID,18.9452,VALID,140,VALID,0,
2012-08-18, 02:40:04,VALID,916.583,VALID,0,VALID,97.29,VALID,0,VALID,18.9452,VALID,106,VALID,0,
2012-08-18, 02:41:04,VALID,916.555,VALID,0,VALID,97.3053,VALID,0,VALID,18.9243,VALID,128,VALID,0,
2012-08-18, 02:42:04,VALID,916.595,VALID,0,VALID,97.3205,VALID,0,VALID,18.8853,VALID,142,VALID,0,
2012-08-18, 02:43:04,VALID,916.573,VALID,0,VALID,97.3205,VALID,0.107441,VALID,18.9062,VALID,159,VALID,0,
2012-08-18, 02:44:04,VALID,916.547,VALID,0,VALID,97.3129,VALID,0.107441,VALID,18.9062,VALID,170,VALID,0,
2012-08-18, 02:45:04,VALID,916.549,VALID,0,VALID,97.3205,VALID,0,VALID,18.8658,VALID,191,VALID,0,
2012-08-18, 02:46:04,VALID,916.544,VALID,0,VALID,97.3358,VALID,0,VALID,18.9062,VALID,157,VALID,0,
2012-08-18, 02:47:04,VALID,916.558,VALID,0,VALID,97.3129,VALID,0.107441,VALID,18.8853,VALID,172,VALID,0,
2012-08-18, 02:48:04,VALID,916.552,VALID,0,VALID,97.351,VALID,0.107441,VALID,18.8867,VALID,155,VALID,0,
2012-08-18, 02:49:04,VALID,916.582,VALID,0,VALID,97.351,VALID,0.107441,VALID,18.8658,VALID,113,VALID,0,
2012-08-18, 02:50:04,VALID,916.575,VALID,0,VALID,97.3434,VALID,0.107441,VALID,18.8463,VALID,156,VALID,0,
2012-08-18, 02:51:04,VALID,916.532,VALID,0,VALID,97.3663,VALID,0.107441,VALID,18.8477,VALID,143,VALID,0,
2012-08-18, 02:52:04,VALID,916.553,VALID,0,VALID,97.3663,VALID,0,VALID,18.8477,VALID,162,VALID,0,
2012-08-18, 02:53:04,VALID,916.558,VALID,0,VALID,97.3586,VALID,0,VALID,18.8282,VALID,173,VALID,0,
2012-08-18, 02:54:04,VALID,916.542,VALID,0,VALID,97.351,VALID,0,VALID,18.8282,VALID,149,VALID,0,
2012-08-18, 02:55:04,VALID,916.569,VALID,0,VALID,97.3663,VALID,0.107441,VALID,18.8073,VALID,150,VALID,0,
2012-08-18, 02:56:04,VALID,916.559,VALID,0,VALID,97.3739,VALID,0.107441,VALID,18.8087,VALID,118,VALID,0.00195313,
2012-08-18, 02:57:04,VALID,916.597,VALID,0,VALID,97.3815,VALID,0.107441,VALID,18.8087,VALID,167,VALID,0,
2012-08-18, 02:58:04,VALID,916.612,VALID,0,VALID,97.3815,VALID,0.107441,VALID,18.8087,VALID,164,VALID,0,
2012-08-18, 02:59:04,VALID,916.589,VALID,0,VALID,97.412,VALID,0,VALID,18.7892,VALID,142,VALID,0,
2012-08-18, 03:00:04,VALID,916.55,VALID,0,VALID,97.4044,VALID,0.107441,VALID,18.7683,VALID,113,VALID,0,
2012-08-18, 03:01:04,VALID,916.573,VALID,0,VALID,97.412,VALID,0,VALID,18.7697,VALID,160,VALID,0,
2012-08-18, 03:02:04,VALID,916.531,VALID,0,VALID,97.3968,VALID,0.107441,VALID,18.7697,VALID,165,VALID,0,
2012-08-18, 03:03:04,VALID,916.506,VALID,0,VALID,97.4273,VALID,0,VALID,18.7503,VALID,186,VALID,0,
2012-08-18, 03:04:04,VALID,916.512,VALID,0,VALID,97.412,VALID,0,VALID,18.7308,VALID,137,VALID,0,
2012-08-18, 03:05:04,VALID,916.476,VALID,0,VALID,97.4044,VALID,0,VALID,18.7308,VALID,164,VALID,0,
2012-08-18, 03:06:04,VALID,916.477,VALID,0,VALID,97.4196,VALID,0,VALID,18.7098,VALID,149,VALID,0,
2012-08-18, 03:07:04,VALID,916.462,VALID,0,VALID,97.4273,VALID,0,VALID,18.7113,VALID,134,VALID,0,
2012-08-18, 03:08:04,VALID,916.473,VALID,0,VALID,97.4273,VALID,0,VALID,18.6708,VALID,141,VALID,0,
2012-08-18, 03:09:04,VALID,916.491,VALID,0,VALID,97.4425,VALID,0,VALID,18.6723,VALID,122,VALID,0,
2012-08-18, 03:10:04,VALID,916.476,VALID,0,VALID,97.4349,VALID,0,VALID,18.6513,VALID,136,VALID,0,
2012-08-18, 03:11:04,VALID,916.464,VALID,0,VALID,97.4349,VALID,0,VALID,18.6528,VALID,151,VALID,0,
2012-08-18, 03:12:04,VALID,916.469,VALID,0,VALID,97.4654,VALID,0.107441,VALID,18.6528,VALID,147,VALID,0,
2012-08-18, 03:13:04,VALID,916.451,VALID,0,VALID,97.4349,VALID,0,VALID,18.6333,VALID,142,VALID,0,
2012-08-18, 03:14:04,VALID,916.406,VALID,0,VALID,97.4349,VALID,0,VALID,18.6138,VALID,145,VALID,0,
2012-08-18, 03:15:04,VALID,916.424,VALID,0,VALID,97.4501,VALID,0,VALID,18.5943,VALID,118,VALID,0,
2012-08-18, 03:16:04,VALID,916.44,VALID,0,VALID,97.4501,VALID,0,VALID,18.6138,VALID,127,VALID,0,
2012-08-18, 03:17:04,VALID,916.432,VALID,0,VALID,97.4425,VALID,0,VALID,18.5748,VALID,123,VALID,0,
2012-08-18, 03:18:04,VALID,916.41,VALID,0,VALID,97.473,VALID,0,VALID,18.5957,VALID,123,VALID,0,
2012-08-18, 03:19:04,VALID,916.432,VALID,0,VALID,97.4425,VALID,0,VALID,18.5567,VALID,123,VALID,0,
2012-08-18, 03:20:04,VALID,916.398,VALID,0,VALID,97.4577,VALID,0,VALID,18.5372,VALID,123,VALID,0,
2012-08-18, 03:21:04,VALID,916.425,VALID,0,VALID,97.4577,VALID,0,VALID,18.5372,VALID,123,VALID,0,
2012-08-18, 03:22:04,VALID,916.428,VALID,0,VALID,97.4501,VALID,0,VALID,18.4982,VALID,123,VALID,0,
2012-08-18, 03:23:04,VALID,916.366,VALID,0,VALID,97.4501,VALID,0,VALID,18.4982,VALID,123,VALID,0,
2012-08-18, 03:24:04,VALID,916.372,VALID,0,VALID,97.4654,VALID,0,VALID,18.4968,VALID,126,VALID,0,
2012-08-18, 03:25:04,VALID,916.38,VALID,0,VALID,97.4654,VALID,0,VALID,18.5177,VALID,144,VALID,0,
2012-08-18, 03:26:04,VALID,916.331,VALID,0,VALID,97.4806,VALID,0,VALID,18.4982,VALID,131,VALID,0,
2012-08-18, 03:27:04,VALID,916.36,VALID,0,VALID,97.4882,VALID,0,VALID,18.4787,VALID,129,VALID,0,
2012-08-18, 03:28:04,VALID,916.339,VALID,0,VALID,97.4654,VALID,0,VALID,18.4592,VALID,141,VALID,0,
2012-08-18, 03:29:04,VALID,916.329,VALID,0,VALID,97.473,VALID,0,VALID,18.4592,VALID,126,VALID,0,
2012-08-18, 03:30:04,VALID,916.364,VALID,0,VALID,97.473,VALID,0,VALID,18.4592,VALID,125,VALID,0,
2012-08-18, 03:31:05,VALID,916.356,VALID,0,VALID,97.4882,VALID,0,VALID,18.4787,VALID,127,VALID,0,
2012-08-18, 03:32:05,VALID,916.356,VALID,0,VALID,97.4882,VALID,0,VALID,18.4592,VALID,125,VALID,0,
2012-08-18, 03:33:05,VALID,916.378,VALID,0,VALID,97.4959,VALID,0,VALID,18.4383,VALID,128,VALID,0,
2012-08-18, 03:34:05,VALID,916.359,VALID,0,VALID,97.4882,VALID,0,VALID,18.4383,VALID,140,VALID,0,
2012-08-18, 03:35:05,VALID,916.352,VALID,0,VALID,97.4882,VALID,0,VALID,18.4188,VALID,135,VALID,0,
2012-08-18, 03:36:05,VALID,916.355,VALID,0,VALID,97.5111,VALID,0,VALID,18.4188,VALID,159,VALID,0,
2012-08-18, 03:37:05,VALID,916.357,VALID,0,VALID,97.5111,VALID,0,VALID,18.4188,VALID,145,VALID,0,
2012-08-18, 03:38:05,VALID,916.37,VALID,0,VALID,97.5187,VALID,0,VALID,18.4188,VALID,153,VALID,0,
2012-08-18, 03:39:05,VALID,916.375,VALID,0,VALID,97.5264,VALID,0,VALID,18.4188,VALID,140,VALID,0,
2012-08-18, 03:40:05,VALID,916.394,VALID,0,VALID,97.5111,VALID,0,VALID,18.4202,VALID,137,VALID,0,
2012-08-18, 03:41:05,VALID,916.389,VALID,0,VALID,97.534,VALID,0,VALID,18.3993,VALID,123,VALID,0,
2012-08-18, 03:42:05,VALID,916.395,VALID,0,VALID,97.5264,VALID,0,VALID,18.3993,VALID,125,VALID,0,
2012-08-18, 03:43:05,VALID,916.418,VALID,0,VALID,97.5187,VALID,0,VALID,18.3993,VALID,132,VALID,0,
2012-08-18, 03:44:05,VALID,916.422,VALID,0,VALID,97.5492,VALID,0,VALID,18.3993,VALID,134,VALID,0,
2012-08-18, 03:45:05,VALID,916.409,VALID,0,VALID,97.534,VALID,0,VALID,18.3993,VALID,118,VALID,0,
2012-08-18, 03:46:05,VALID,916.419,VALID,0,VALID,97.5492,VALID,0,VALID,18.3603,VALID,134,VALID,0,
2012-08-18, 03:47:05,VALID,916.405,VALID,0,VALID,97.5569,VALID,0,VALID,18.3798,VALID,141,VALID,0,
2012-08-18, 03:48:05,VALID,916.432,VALID,0,VALID,97.5416,VALID,0,VALID,18.3603,VALID,138,VALID,0,
2012-08-18, 03:49:05,VALID,916.426,VALID,0,VALID,97.5569,VALID,0,VALID,18.3408,VALID,137,VALID,0,
2012-08-18, 03:50:05,VALID,916.436,VALID,0,VALID,97.5569,VALID,0,VALID,18.3408,VALID,123,VALID,0,
2012-08-18, 03:51:05,VALID,916.459,VALID,0,VALID,97.5873,VALID,0,VALID,18.3213,VALID,112,VALID,0,
2012-08-18, 03:52:05,VALID,916.456,VALID,0,VALID,97.5645,VALID,0,VALID,18.3408,VALID,138,VALID,0,
2012-08-18, 03:53:05,VALID,916.455,VALID,0,VALID,97.5569,VALID,0,VALID,18.3213,VALID,109,VALID,0,
2012-08-18, 03:54:05,VALID,916.46,VALID,0,VALID,97.5721,VALID,0,VALID,18.3408,VALID,143,VALID,0,
2012-08-18, 03:55:05,VALID,916.494,VALID,0,VALID,97.6026,VALID,0,VALID,18.3603,VALID,142,VALID,0,
2012-08-18, 03:56:05,VALID,916.521,VALID,0,VALID,97.5797,VALID,0,VALID,18.3812,VALID,139,VALID,0,
2012-08-18, 03:57:05,VALID,916.501,VALID,0,VALID,97.5873,VALID,0,VALID,18.3589,VALID,181,VALID,0,